Home > Weather > Vennesla > Past weeks

Flag for Norway Past Weather in Vennesla, Norway — Yesterday and Last 2 Weeks

Now
73 °F

Passing clouds.


Feels Like: 76 °F
Forecast: 58 / 67 °F
Wind: 7 mph from Southwest

Location: Kristiansand / Kjevik

Current Time: Jul 24, 2016 at 12:40:39 PM

Latest Report: Jul 24, 2016 at 11:50 AM


Visibility: N/A

Pressure: 30.12 "Hg

Humidity: 69%

Dew Point: 63 °F

Location of VenneslaLocation

Past Weather in Vennesla — Graph

°F

Vennesla Temperature Yesterday

Maximum temperature yesterday: 72 °F (at 12:50 PM)
Minimum temperature yesterday: 59 °F (at 11:20 PM)
Average temperature yesterday: 66 °F

High & Low Weather Summary for the Past Weeks

 TemperatureHumidityPressure
High75 °F (Jul 19, 5:20 PM)100% (Jul 10, 10:50 AM)30.12 "Hg (Jul 10, 10:50 AM)
Low52 °F (Jul 17, 2:50 AM)40% (Jul 16, 5:50 PM)29.47 "Hg (Jul 11, 4:50 AM)
Average63 °F80%29.88 "Hg
* Reported Jul 9 11:20 AM — Jul 24 11:20 AM, Vennesla, Weather by CustomWeather, © 2016

Note: Actual official high and low records may vary slightly from our data, if they occured in-between our weather recording intervals... More about our weather records

Advertising

Vennesla Weather History for the Previous 24 Hours

Scroll right to see more
 ConditionsComfort  
Time TempWeatherWind HumidityBarometerVisibility
11:20 AM
Sun, Jul 24
72 °FPassing clouds.5 mph69%30.12 "HgN/A
10:50 AM72 °FPassing clouds.3 mph73%30.09 "HgN/A
10:20 AM70 °FPassing clouds.1 mph78%30.12 "HgN/A
9:50 AM68 °FPassing clouds.6 mph83%30.12 "HgN/A
9:20 AM66 °FPassing clouds.5 mph83%30.12 "HgN/A
8:50 AM64 °FPartly sunny.5 mph88%30.12 "HgN/A
8:20 AM63 °FPartly sunny.5 mph88%30.12 "HgN/A
7:50 AM61 °FPartly sunny.3 mph94%30.12 "HgN/A
7:20 AM59 °FPartly sunny.3 mph94%30.12 "HgN/A
6:50 AM59 °FPartly sunny.3 mph94%30.12 "HgN/A
6:20 AM57 °FPartly sunny.3 mph100%30.12 "HgN/A
5:50 AM57 °FPassing clouds.6 mph94%30.12 "HgN/A
5:20 AM57 °FLow clouds.5 mph94%30.12 "HgN/A
4:50 AM57 °FMostly cloudy.5 mph94%30.12 "HgN/A
4:20 AM57 °FPassing clouds.3 mph94%30.12 "HgN/A
3:50 AM59 °FPassing clouds.3 mph94%30.12 "HgN/A
3:20 AM57 °FPartly cloudy.5 mph100%30.12 "HgN/A
2:50 AM59 °FPartly cloudy.3 mph94%30.12 "HgN/A
2:20 AM59 °FOvercast.5 mph94%30.12 "HgN/A
1:50 AM59 °FPassing clouds.6 mph100%30.12 "HgN/A
1:20 AM59 °FOvercast.5 mph94%30.12 "HgN/A
12:50 AM59 °FOvercast.6 mph94%30.12 "HgN/A
12:20 AM59 °FOvercast.3 mph100%30.12 "HgN/A
11:50 PM
Sat, Jul 23
59 °FPassing clouds.5 mph100%30.12 "HgN/A
11:20 PM59 °FPassing clouds.6 mph94%30.12 "HgN/A
10:50 PM61 °FSunny.3 mph94%30.12 "Hg10 mi
10:20 PM63 °FSunny.2 mph88%30.12 "Hg10 mi
9:50 PM64 °FSunny.5 mph83%30.12 "Hg10 mi
9:20 PM66 °FSunny.5 mph78%30.12 "Hg10 mi
8:50 PM66 °FSunny.6 mph83%30.12 "Hg10 mi
8:20 PM66 °FPassing clouds.5 mph78%30.12 "HgN/A
7:50 PM66 °FPassing clouds.7 mph78%30.12 "HgN/A
7:20 PM68 °FPassing clouds.9 mph69%30.12 "HgN/A
6:50 PM70 °FScattered clouds.8 mph64%30.12 "HgN/A
6:20 PM70 °FPassing clouds.9 mph69%30.12 "HgN/A
5:50 PM70 °FPassing clouds.10 mph73%30.12 "HgN/A
5:20 PM70 °FPassing clouds.12 mph73%30.12 "HgN/A
4:50 PM70 °FPassing clouds.12 mph78%30.12 "HgN/A
4:20 PM70 °FScattered clouds.10 mph78%30.12 "HgN/A
3:50 PM70 °FScattered clouds.10 mph78%30.12 "HgN/A
3:20 PM72 °FBroken clouds.10 mph73%30.12 "HgN/A
2:50 PM72 °FScattered clouds.9 mph73%30.12 "HgN/A
2:20 PM72 °FScattered clouds.9 mph69%30.12 "HgN/A
1:50 PM72 °FScattered clouds.6 mph69%30.12 "HgN/A
1:20 PM70 °FScattered clouds.6 mph69%30.12 "HgN/A
12:50 PM72 °FScattered clouds.6 mph65%30.12 "HgN/A
12:20 PM70 °FScattered clouds.6 mph69%30.12 "HgN/A
Weather by CustomWeather, © 2016

See weather overviewHow to use our weather pages